Lunenburg, Nouvelle Écosse

Conditions des dernières 24 heures

Ce tableau est un sommaire des conditions météo couvrant les dernières 24 heures. Ce sommaire inclut les paramètres suivants: température, humidité, point de rosée, direction et vitesse du vent, pression barométrique, facteur de refroidissement éolien ou indice humidex.
Date / Heure
(HAA)
Conditions Temp (°C) Humidite (%) Point de rose (°C) Vent (km/h) Pression (kPa) Visibilité (km)
28 juillet 2014
17:00 N.D. 18 100 18 ESE 10 100,9 N.D.
16:00 N.D. 19 100 19 SSE 7 100,9 N.D.
15:00 N.D. 18 99 17 SE 10 100,9 N.D.
14:00 N.D. 18 99 18 SSO 9 101,0 N.D.
13:00 N.D. 19 99 19 S 17 101,0 N.D.
12:00 N.D. 18 100 18 SSE 13 101,0 N.D.
11:00 N.D. 19 100 19 SSO 14 101,0 N.D.
10:00 N.D. 19 99 19 SSO 15 101,0 N.D.
9:00 N.D. 19 99 19 SSO 14 101,0 N.D.
8:00 N.D. 18 99 18 SSO 19 101,0 N.D.
7:00 N.D. 18 98 18 SSE 21 101,0 N.D.
6:00 N.D. 17   99 17 SE 8 101,0 N.D.
5:00 N.D. 17   100 17 ESE 9 101,0 N.D.
4:00 N.D. 17   100 17 S 6 101,0 N.D.
3:00 N.D. 17   99 17 S 10 101,0 N.D.
2:00 N.D. 18 98 17 SSO 17 101,1 N.D.
1:00 N.D. 17   97 17 SSE 18 101,0 N.D.
0:00 N.D. 17   95 16 SSE 26 101,1 N.D.
27 juillet 2014
23:00 N.D. 17   92 16 S 15 101,2 N.D.
22:00 N.D. 17   93 16 S 22 101,2 N.D.
21:00 N.D. 17   93 16 S 16 101,3 N.D.
20:00 N.D. 18 90 16 S 15 101,2 N.D.
19:00 N.D. 19 83 16 SSO 2 101,3 N.D.
18:00 N.D. 20   83 17 SO 16 101,3 N.D.
17:00 N.D. 20   86 17 SSO 14 101,3 N.D.
N.D.
non disponible
 ↑ 
température la plus haute
 ↓ 
température la plus basse

Si vous désirez plus de données historiques sur les conditions météo, s.v.p. visitez Données climatologiques en ligne.